• In Uzbekistan
  • List of Countries
  • For 7 days
  • Water Temperature
  • Satellite Maps
  • Weather Map
  • Weather Widgets
  • user-avatar
    Login

    Hourly Weather San Juan

    Today, 27 June, Tuesday

    Time Temperature Precipitation Wind Pressure Humidity
    00:00 +11°C° 0.1 mm 4 mps 705 mmHg 87%
    01:00 +10°C° 0.1 mm 3 mps 705 mmHg 87%
    02:00 +10°C° 0 mm 3 mps 706 mmHg 86%
    03:00 +10°C° 0 mm 3 mps 706 mmHg 86%
    04:00 +9°C° 0 mm 3 mps 706 mmHg 85%
    05:00 +8°C° 0 mm 4 mps 707 mmHg 85%
    06:00 +8°C° 0 mm 4 mps 708 mmHg 85%
    07:00 +8°C° 0 mm 4 mps 708 mmHg 85%
    08:00 +10°C° 0 mm 4 mps 708 mmHg 80%
    09:00 +11°C° 0 mm 4 mps 709 mmHg 75%
    10:00 +12°C° 0 mm 4 mps 709 mmHg 70%
    11:00 +12°C° 0 mm 4 mps 708 mmHg 68%
    12:00 +12°C° 0 mm 4 mps 708 mmHg 66%
    13:00 +13°C° 0 mm 4 mps 708 mmHg 65%
    14:00 +13°C° 0 mm 4 mps 708 mmHg 66%
    15:00 +12°C° 0 mm 4 mps 708 mmHg 67%
    16:00 +12°C° 0 mm 4 mps 708 mmHg 67%
    17:00 +11°C° 0 mm 4 mps 708 mmHg 72%
    18:00 +11°C° 0 mm 3 mps 709 mmHg 76%
    19:00 +10°C° 0 mm 3 mps 709 mmHg 80%
    20:00 +9°C° 0 mm 2 mps 710 mmHg 81%
    21:00 +9°C° 0 mm 2 mps 710 mmHg 83%
    22:00 +8°C° 0 mm 2 mps 710 mmHg 85%
    23:00 +8°C° 0 mm 2 mps 710 mmHg 85%

    Tomorrow, 28 June, Wednesday

    Time Temperature Precipitation Wind Pressure Humidity
    00:00 +9°C° 0 mm 1 mps 709 mmHg 85%
    01:00 +8°C° 0 mm 1 mps 709 mmHg 86%
    02:00 +8°C° 0 mm 1 mps 709 mmHg 84%
    03:00 +8°C° 0 mm 1 mps 708 mmHg 83%
    04:00 +8°C° 0 mm 1 mps 708 mmHg 82%
    05:00 +8°C° 0 mm 1 mps 708 mmHg 80%
    06:00 +8°C° 0 mm 1 mps 708 mmHg 78%
    07:00 +8°C° 0 mm 1 mps 708 mmHg 76%
    08:00 +10°C° 0 mm 1 mps 708 mmHg 67%
    09:00 +12°C° 0 mm 1 mps 708 mmHg 57%
    10:00 +14°C° 0 mm 1 mps 708 mmHg 48%
    11:00 +15°C° 0 mm 1 mps 708 mmHg 43%
    12:00 +16°C° 0 mm 1 mps 707 mmHg 39%
    13:00 +18°C° 0 mm 1 mps 706 mmHg 35%
    14:00 +18°C° 0 mm 1 mps 706 mmHg 35%
    15:00 +16°C° 0 mm 1 mps 706 mmHg 35%
    16:00 +16°C° 0 mm 1 mps 706 mmHg 35%
    17:00 +15°C° 0 mm 1 mps 706 mmHg 38%
    18:00 +13°C° 0 mm 1 mps 707 mmHg 41%
    19:00 +12°C° 0 mm 1 mps 707 mmHg 44%
    20:00 +12°C° 0 mm 2 mps 707 mmHg 43%
    21:00 +12°C° 0 mm 2 mps 708 mmHg 42%
    22:00 +10°C° 0 mm 2 mps 708 mmHg 41%
    23:00 +10°C° 0 mm 2 mps 708 mmHg 39%

    Day after tomorrow, 29 June, Thursday

    Time Temperature Precipitation Wind Pressure Humidity
    00:00 +10°C° 0 mm 2 mps 708 mmHg 37%
    01:00 +10°C° 0 mm 3 mps 708 mmHg 36%
    02:00 +10°C° 0 mm 3 mps 708 mmHg 35%
    03:00 +9°C° 0 mm 3 mps 707 mmHg 35%
    04:00 +9°C° 0 mm 3 mps 707 mmHg 35%
    05:00 +9°C° 0 mm 3 mps 707 mmHg 35%
    06:00 +9°C° 0 mm 3 mps 707 mmHg 35%
    07:00 +9°C° 0 mm 3 mps 707 mmHg 35%
    08:00 +12°C° 0 mm 3 mps 708 mmHg 30%
    09:00 +16°C° 0 mm 3 mps 708 mmHg 25%
    10:00 +18°C° 0 mm 3 mps 708 mmHg 21%
    11:00 +19°C° 0 mm 3 mps 707 mmHg 19%
    12:00 +21°C° 0 mm 3 mps 707 mmHg 17%
    13:00 +22°C° 0 mm 3 mps 706 mmHg 15%
    14:00 +21°C° 0 mm 2 mps 706 mmHg 16%
    15:00 +20°C° 0 mm 2 mps 706 mmHg 18%
    16:00 +20°C° 0 mm 1 mps 706 mmHg 19%
    17:00 +18°C° 0 mm 1 mps 706 mmHg 23%
    18:00 +15°C° 0 mm 1 mps 707 mmHg 26%
    19:00 +14°C° 0 mm 1 mps 707 mmHg 29%
    20:00 +13°C° 0 mm 1 mps 707 mmHg 29%
    21:00 +13°C° 0 mm 1 mps 707 mmHg 29%
    22:00 +12°C° 0 mm 1 mps 707 mmHg 30%
    23:00 +12°C° 0 mm 1 mps 708 mmHg 32%

    30 June, Friday

    Time Temperature Precipitation Wind Pressure Humidity
    00:00 +12°C° 0 mm 2 mps 708 mmHg 34%
    01:00 +10°C° 0 mm 2 mps 708 mmHg 36%
    02:00 +10°C° 0 mm 2 mps 708 mmHg 40%
    03:00 +10°C° 0 mm 2 mps 709 mmHg 43%
    04:00 +10°C° 0 mm 2 mps 709 mmHg 47%
    05:00 +9°C° 0 mm 2 mps 709 mmHg 49%
    06:00 +9°C° 0 mm 2 mps 710 mmHg 51%
    07:00 +9°C° 0 mm 2 mps 711 mmHg 53%
    08:00 +12°C° 0 mm 2 mps 711 mmHg 46%
    09:00 +14°C° 0 mm 2 mps 711 mmHg 40%
    10:00 +16°C° 0 mm 3 mps 712 mmHg 33%
    11:00 +17°C° 0 mm 3 mps 711 mmHg 33%
    12:00 +17°C° 0 mm 3 mps 711 mmHg 33%
    13:00 +18°C° 0 mm 3 mps 710 mmHg 32%
    14:00 +17°C° 0 mm 3 mps 710 mmHg 35%
    15:00 +17°C° 0 mm 3 mps 710 mmHg 37%
    16:00 +16°C° 0 mm 2 mps 710 mmHg 40%
    17:00 +15°C° 0 mm 2 mps 710 mmHg 45%
    18:00 +14°C° 0 mm 2 mps 711 mmHg 50%
    19:00 +12°C° 0 mm 2 mps 711 mmHg 55%
    20:00 +12°C° 0 mm 2 mps 711 mmHg 56%
    21:00 +10°C° 0 mm 2 mps 711 mmHg 58%
    22:00 +10°C° 0 mm 2 mps 711 mmHg 60%
    23:00 +10°C° 0 mm 1 mps 711 mmHg 61%

    1 July, Saturday

    Time Temperature Precipitation Wind Pressure Humidity
    00:00 +10°C° 0 mm 1 mps 710 mmHg 62%
    01:00 +9°C° 0 mm 1 mps 710 mmHg 63%
    02:00 +9°C° 0 mm 1 mps 710 mmHg 64%
    03:00 +9°C° 0 mm 1 mps 710 mmHg 65%
    04:00 +9°C° 0 mm 1 mps 709 mmHg 66%
    05:00 +9°C° 0 mm 1 mps 710 mmHg 66%
    06:00 +9°C° 0 mm 1 mps 710 mmHg 65%
    07:00 +9°C° 0 mm 1 mps 710 mmHg 65%
    08:00 +10°C° 0 mm 2 mps 710 mmHg 58%
    09:00 +14°C° 0 mm 2 mps 710 mmHg 51%
    10:00 +16°C° 0 mm 2 mps 711 mmHg 44%
    11:00 +17°C° 0 mm 2 mps 710 mmHg 42%
    12:00 +18°C° 0 mm 2 mps 709 mmHg 40%
    13:00 +19°C° 0 mm 2 mps 709 mmHg 38%
    14:00 +19°C° 0 mm 2 mps 709 mmHg 41%
    15:00 +19°C° 0 mm 1 mps 708 mmHg 43%
    16:00 +19°C° 0 mm 1 mps 708 mmHg 45%
    17:00 +16°C° 0 mm 1 mps 708 mmHg 51%
    18:00 +14°C° 0 mm 1 mps 709 mmHg 57%
    19:00 +13°C° 0 mm 1 mps 709 mmHg 63%
    20:00 +13°C° 0 mm 1 mps 709 mmHg 63%
    21:00 +12°C° 0 mm 2 mps 709 mmHg 63%
    22:00 +12°C° 0 mm 2 mps 709 mmHg 64%
    23:00 +12°C° 0 mm 2 mps 709 mmHg 64%

    2 July, Sunday

    Time Temperature Precipitation Wind Pressure Humidity
    00:00 +12°C° 0 mm 2 mps 709 mmHg 64%
    01:00 +10°C° 0 mm 2 mps 708 mmHg 64%
    02:00 +10°C° 0 mm 2 mps 708 mmHg 64%
    03:00 +10°C° 0 mm 2 mps 708 mmHg 63%
    04:00 +10°C° 0 mm 2 mps 708 mmHg 63%
    05:00 +10°C° 0 mm 2 mps 708 mmHg 62%
    06:00 +10°C° 0 mm 2 mps 709 mmHg 61%
    07:00 +10°C° 0 mm 2 mps 709 mmHg 60%
    08:00 +13°C° 0 mm 2 mps 709 mmHg 51%
    09:00 +16°C° 0 mm 2 mps 710 mmHg 42%
    10:00 +19°C° 0 mm 3 mps 710 mmHg 34%
    11:00 +20°C° 0 mm 3 mps 710 mmHg 31%
    12:00 +21°C° 0 mm 3 mps 709 mmHg 29%
    13:00 +24°C° 0 mm 3 mps 709 mmHg 26%
    14:00 +22°C° 0 mm 3 mps 708 mmHg 28%
    15:00 +21°C° 0 mm 2 mps 708 mmHg 30%
    16:00 +20°C° 0 mm 2 mps 708 mmHg 32%
    17:00 +19°C° 0 mm 2 mps 708 mmHg 36%
    18:00 +17°C° 0 mm 2 mps 708 mmHg 39%
    19:00 +16°C° 0 mm 2 mps 708 mmHg 42%
    20:00 +16°C° 0 mm 2 mps 708 mmHg 43%
    21:00 +15°C° 0 mm 2 mps 708 mmHg 44%
    22:00 +14°C° 0 mm 3 mps 707 mmHg 45%
    23:00 +13°C° 0 mm 3 mps 707 mmHg 47%
    Show more